Overview Statistics Trail Chart Weather Telemetry Raw packets
 

This is the latest recevied weather packets stored in our database for station/object KD7AWQ. If no packets are shown the sender has not sent any weather packets the latest 10 day(s).

<< 14 15 16 17 18 19 20 >>
Time Temp. Humidity Pressure Rain* Wind** Luminosity Snow
1788349771 23.33° C 47% 1189 hPa 0 mm - 0 W/m² -
1788349466 23.89° C 46% 1188.8 hPa 0 mm - 0 W/m² -
1788349161 24.44° C 44% 1189 hPa 0 mm - 0 W/m² -
1788348857 24.44° C 43% 1188.9 hPa 0 mm - 0 W/m² -
1788348556 23.89° C 42% 1188.9 hPa 0 mm - 0 W/m² -
1788348252 23.89° C 44% 1188.9 hPa 0 mm - 0 W/m² -
1788347948 24.44° C 43% 1188.9 hPa 0 mm - 0 W/m² -
1788347644 24.44° C 41% 1189.3 hPa 0 mm - 0 W/m² -
1788347340 24.44° C 42% 1189 hPa 0 mm - 0 W/m² -
1788347035 24.44° C 40% 1188.9 hPa 0 mm - 0 W/m² -
1788346735 23.89° C 44% 1188.6 hPa 0 mm - 0 W/m² -
1788346431 23.89° C 45% 1188.8 hPa 0 mm - 0 W/m² -
1788346126 23.89° C 46% 1188.9 hPa 0 mm - 0 W/m² -
1788345822 23.33° C 47% 1188.8 hPa 0 mm - 0 W/m² -
1788345521 22.78° C 47% 1188.9 hPa 0 mm - 0 W/m² -
1788345217 23.33° C 48% 1189 hPa 0 mm - 0 W/m² -
1788344911 23.89° C 46% 1189 hPa 0 mm - 0 W/m² -
1788344609 23.89° C 46% 1188.9 hPa 0 mm - 0 W/m² -
1788344304 23.89° C 46% 1189 hPa 0 mm - 0 W/m² -
1788343999 23.89° C 46% 1189 hPa 0 mm - 0 W/m² -
1788343698 23.89° C 45% 1188.9 hPa 0 mm - 0 W/m² -
1788343392 23.89° C 45% 1188.9 hPa 0 mm - 0 W/m² -
1788343088 23.89° C 46% 1189 hPa 0 mm - 0 W/m² -
1788342782 23.33° C 46% 1189 hPa 0 mm - 0 W/m² -
1788342476 23.33° C 46% 1189.1 hPa 0 mm - 0 W/m² -

* Rain latest hour (hover to see other rain measurements)
** Current wind speed in m/s (hover to see current wind gust speed)